Location: Sternwarte auf dem Internationalen Platz Vogelsang IP
(50.5721°N, 6.4398°E)
Time: 18:52:11
(UTC+01:00)

A-11 Canister half - Pass Details

Date: 12 December 2025
Orbit: 1511 x 1688 km, 47.2° (Epoch: 19 January)

Event Time Altitude Azimuth Distance (km) Brightness Sun altitude
Rises 00:19:16 0° 284° (WNW) 4,839 - -62.5°
Reaches altitude 10° 00:24:55 10° 259° (WSW) 3,887 - -62.5°
Maximum altitude 00:28:33 13° 237° (WSW) 3,699 - -62.5°
Drops below altitude 10° 00:32:13 10° 215° (SW) 3,920 - -62.5°
Sets 00:38:03 0° 189° (S) 4,923 - -62.4°
